Location: ???????????
(55.5758°N, 38.4970°E)
Time: 19:09:48
(UTC+00:00)

USA 267 - Pass Details

Date: 15 November 2025
Orbit: 1100 x 1108 km, 123.0° (Epoch: 21 November)

Event Time Altitude Azimuth Distance (km) Brightness Sun altitude
Rises 01:31:43 0° 62° (ENE) 3,926 7.2 -29.1°
Reaches altitude 10° 01:34:25 10° 71° (ENE) 2,964 6.4 -28.7°
Maximum altitude 01:40:28 39° 138° (SE) 1,599 4.3 -27.9°
Enters shadow 01:44:05 22° 192° (SSW) 2,188 4.6 -27.4°
